Location: NJAA Observatory
(40.6819°N, 74.8979°W)
Time: 16:55:52
(UTC-04:00)

Transit 2A Rocket - Visible Passes

Search period start: 24 April 2018 00:00
Search period end: 04 May 2018 00:00
Orbit: 591 x 912 km, 66.7° (Epoch: 24 April)

Date Brightness Start Highest point End Pass type
(mag) Time Alt. Az. Time Alt. Az. Time Alt. Az.
24 Apr 7.1 02:19:01 10° N 02:22:13 18° NE 02:24:03 15° ENE visible
24 Apr 5.3 04:00:47 10° NW 04:03:50 37° WNW 04:03:50 37° WNW visible
24 Apr 8.0 20:20:14 10° WNW 20:22:43 13° NW 20:25:07 10° NNW visible
25 Apr 7.6 01:37:47 10° NNE 01:39:21 12° NE 01:40:53 10° ENE visible
25 Apr 5.6 03:18:13 10° NNW 03:21:04 38° NNW 03:21:04 38° NNW visible
26 Apr 6.2 02:35:54 10° NNW 02:38:42 32° N 02:38:42 32° N visible
27 Apr 6.8 01:53:49 10° N 01:56:33 23° NNE 01:56:33 23° NNE visible
27 Apr 7.0 03:36:13 10° NW 03:36:25 11° NW 03:36:25 11° NW visible
28 Apr 7.2 01:12:03 10° N 01:14:35 16° NE 01:14:35 16° NE visible
28 Apr 6.8 02:53:27 10° NW 02:54:26 16° NW 02:54:26 16° NW visible
29 Apr 6.7 02:10:58 10° NNW 02:12:33 21° NNW 02:12:33 21° NNW visible
30 Apr 6.8 01:28:44 10° NNW 01:30:45 23° N 01:30:45 23° N visible
01 May 7.0 00:46:44 10° N 00:49:00 19° NNE 00:49:00 19° NNE visible
01 May 7.3 02:28:48 10° NW 02:28:53 10° NW 02:28:53 10° NW visible
02 May 7.2 00:05:12 10° NNE 00:07:19 13° NE 00:07:19 13° NE visible
02 May 7.0 01:46:08 10° NNW 01:47:12 17° NNW 01:47:12 17° NNW visible
03 May 6.8 01:03:45 10° NNW 01:05:33 23° NNW 01:05:33 23° NNW visible
